Location: Moscow
(55.7500°N, 37.5830°E)
Time: 22:03:03
(UTC+03:00)

A-11 Canister half - Pass Details

Date: 08 December 2021
Orbit: 1516 x 1684 km, 47.2° (Epoch: 16 January)

Event Time Altitude Azimuth Distance (km) Brightness Sun altitude
Rises 12:57:18 0° 283° (WNW) 4,876 11.6 11.1°
Reaches altitude 10° 13:01:11 10° 271° (W) 3,908 11.3 11.0°
Maximum altitude 13:08:34 24° 223° (SW) 2,961 11.7 10.9°
Drops below altitude 10° 13:16:02 10° 174° (S) 3,941 12.9 10.6°
Sets 13:19:59 0° 162° (SSE) 4,925 12.7 10.5°
